TimeAKST,TemperatureF,Dew PointF,Humidity,Sea Level PressureIn,VisibilityMPH,Wind Direction,Wind SpeedMPH,Gust SpeedMPH,PrecipitationIn,Events,Conditions,WindDirDegrees,DateUTC
12:56 AM,28.0,23.0,81,29.63,10.0,Calm,Calm,-,N/A,,Unknown,0,2014-02-08 09:56:00
1:56 AM,32.9,28.0,82,29.68,5.0,Calm,Calm,-,N/A,,Haze,0,2014-02-08 10:56:00
3:56 AM,34.9,30.0,82,29.75,10.0,Calm,Calm,-,N/A,,Unknown,0,2014-02-08 12:56:00
4:56 AM,36.9,30.0,76,29.79,10.0,Calm,Calm,-,N/A,,Unknown,0,2014-02-08 13:56:00
5:56 AM,36.9,30.0,76,29.81,10.0,Calm,Calm,-,N/A,,Clear,0,2014-02-08 14:56:00
6:56 AM,34.9,29.1,79,29.86,10.0,Calm,Calm,-,N/A,,Unknown,0,2014-02-08 15:56:00
7:56 AM,36.0,28.0,73,29.91,10.0,Calm,Calm,-,N/A,,Unknown,0,2014-02-08 16:56:00
8:56 AM,34.9,27.1,73,29.96,10.0,Calm,Calm,-,N/A,,Unknown,0,2014-02-08 17:56:00
9:56 AM,36.0,26.1,67,30.00,10.0,Calm,Calm,-,N/A,,Unknown,0,2014-02-08 18:56:00
10:56 AM,31.1,26.1,82,30.02,10.0,Calm,Calm,-,N/A,,Unknown,0,2014-02-08 19:56:00
11:56 AM,31.1,25.2,79,30.04,10.0,Calm,Calm,-,N/A,,Unknown,0,2014-02-08 20:56:00
12:56 PM,36.0,26.1,67,30.07,10.0,Calm,Calm,-,N/A,,Unknown,0,2014-02-08 21:56:00
1:56 PM,37.9,27.1,65,30.08,10.0,Calm,Calm,-,N/A,,Unknown,0,2014-02-08 22:56:00
2:56 PM,41.9,28.0,58,30.08,10.0,Calm,Calm,-,N/A,,Clear,0,2014-02-08 23:56:00
3:56 PM,41.0,27.1,58,30.09,10.0,Calm,Calm,-,N/A,,Unknown,0,2014-02-09 00:56:00
4:56 PM,34.9,25.2,68,30.11,10.0,Calm,Calm,-,N/A,,Unknown,0,2014-02-09 01:56:00
5:56 PM,31.1,23.0,72,30.14,10.0,Calm,Calm,-,N/A,,Unknown,0,2014-02-09 02:56:00
6:56 PM,27.1,20.1,75,30.15,10.0,Calm,Calm,-,N/A,,Unknown,0,2014-02-09 03:56:00
7:56 PM,26.1,19.0,75,30.16,10.0,Calm,Calm,-,N/A,,Unknown,0,2014-02-09 04:56:00
8:56 PM,22.1,16.2,78,30.17,10.0,Calm,Calm,-,N/A,,Unknown,0,2014-02-09 05:56:00
9:56 PM,20.1,15.1,81,30.17,10.0,Calm,Calm,-,N/A,,Unknown,0,2014-02-09 06:56:00
10:56 PM,20.1,13.1,74,30.17,10.0,Calm,Calm,-,N/A,,Unknown,0,2014-02-09 07:56:00
11:56 PM,18.1,10.0,71,30.17,10.0,Calm,Calm,-,N/A,,Unknown,0,2014-02-09 08:56:00